This demonstration page uses our WeatherBlox Daily Observations layout. Learn more.

Left ArrowRight Arrow

39.01783, -85.05884

Hourly Observations for March 15, 2015

Temp ( °F °C ) Dew Point ( °F °C ) Humidity (%) Winds ( mph kmh ) Pressure ( in mb ) Visibility ( mi km ) Precip ( " mm )
12:52 am 00:52 Mostly Cloudy 44 6.7 37 2.8 76 76 N 5 7 30.13 1020 10 16 0.00 0.00
1:52 am 01:52 Mostly Cloudy 43 6.1 37 2.8 80 80 NW 3 6 30.14 1021 10 16 0.00 0.00
2:52 am 02:52 Mostly Cloudy 39 3.9 36 2.2 89 89 Calm 30.16 1021 10 16 0.00 0.00
3:52 am 03:52 Mostly Cloudy 37 2.8 35 1.7 93 93 Calm 30.16 1021 10 16 0.00 0.00
4:52 am 04:52 Partly Cloudy 38 3.3 36 2.2 93 93 Calm 30.16 1021 9 14 0.00 0.00
5:52 am 05:52 Partly Cloudy 39 3.9 36 2.2 89 89 W 6 9 30.19 1022 9 14 0.00 0.00
6:52 am 06:52 Clear 40 4.4 37 2.8 89 89 Calm 30.22 1023 10 16 0.00 0.00
7:52 am 07:52 Sunny with Mist and Fog 36 2.2 34 1.1 93 93 Calm 30.24 1024 6 10 0.00 0.00
8:52 am 08:52 Sunny with Mist and Fog 39 3.9 36 2.2 89 89 WNW 5 7 30.26 1025 6 10 0.00 0.00
9:52 am 09:52 Sunny 47 8.3 37 2.8 69 69 NW 5 7 30.28 1025 10 16 0.00 0.00
10:52 am 10:52 Sunny 50 10 36 2.2 59 59 WNW 9 15 30.29 1026 10 16 0.00 0.00
11:52 am 11:52 Sunny 53 11.7 36 2.2 52 52 NW 14 22 30.29 1026 10 16 0.00 0.00
12:52 pm 12:52 Mostly Sunny 56 13.3 37 2.8 49 49 WNW 7 11 30.29 1026 10 16 0.00 0.00
1:52 pm 13:52 Mostly Sunny 59 15 36 2.2 42 42 NW 5 7 30.27 1025 10 16 0.00 0.00
2:52 pm 14:52 Partly Cloudy 63 17.2 37 2.8 38 38 WNW 10 17 30.24 1024 10 16 0.00 0.00
3:52 pm 15:52 Partly Cloudy 63 17.2 34 1.1 34 34 NW 7 11 30.23 1024 10 16 0.00 0.00
4:52 pm 16:52 Mostly Cloudy 63 17.2 32 0 31 31 NW 9 15 30.21 1023 10 16 0.00 0.00
5:52 pm 17:52 Mostly Cloudy 62 16.7 33 0.6 34 34 NW 5 7 30.19 1022 10 16 0.00 0.00
6:52 pm 18:52 Mostly Cloudy 62 16.7 34 1.1 35 35 W 8 13 30.19 1022 10 16 0.00 0.00
7:52 pm 19:52 Partly Cloudy 58 14.4 33 0.6 39 39 W 5 7 30.20 1023 10 16 0.00 0.00
8:52 pm 20:52 Partly Cloudy 51 10.6 35 1.7 54 54 SSW 3 6 30.19 1022 10 16 0.00 0.00
9:52 pm 21:52 Partly Cloudy 50 10 34 1.1 54 54 S 6 9 30.16 1022 10 16 0.00 0.00
10:52 pm 22:52 Mostly Cloudy 48 8.9 35 1.7 61 61 SSW 6 9 30.16 1022 10 16 0.00 0.00
11:52 pm 23:52 Cloudy 54 12.2 35 1.7 49 49 SSW 8 13 30.13 1020 10 16 0.00 0.00

Powered by AerisWeather